Location: Red Deer
(52.2681°N, 113.8112°W)
Time: 23:57:02
(UTC-06:00)

QB50P2 - Pass Details

Date: 27 May 2022
Orbit: 589 x 607 km, 97.9° (Epoch: 27 June)

Event Time Altitude Azimuth Distance (km) Brightness Sun altitude
Rises 03:57:24 0° 8° (N) 2,838 ? -9.9°
Reaches altitude 10° 03:59:42 10° 359° (N) 1,931 ? -9.7°
Maximum altitude 04:03:29 34° 295° (WNW) 988 ? -9.4°
Enters shadow 04:07:02 11° 231° (SW) 1,841 ? -9.1°
